SL-14 R/B (16882 NORAD) Tracking and Keplerian Element Data

This shows tracking and keplerian element data for the satellite.

Feedback or suggestion? Click here.




ElementValue
Catalog16882
NameSL-14 R/B
Epoch Orbit260
Epoch Day12.91224125
Epoch Year2024
RAAN145.3788
Inclination82.5222
Eccentricity0.0020607
Argument of Perigee54.897
Mean Anonmoly67.7674
Mean Motion14.84132749
Decay Rate9.26E-06
L11 16882U 86055B 24012.91224125 .00000926 00000+0 10763-3 0 9990
L22 16882 82.5222 145.3788 0020607 54.8970 67.7674 14.84132749 2600



Live tracking and technical data element details for SL-14 R/B (NORAD 16882). SL-14 R/B can be tracked NOW for your location showing map with azimuth and elevation plus other details from your city location.







IsCatalogInMostPopularTable: catalog: 16882, numindb: 387
Update: records affected: 1



GetName: 16882 SL-14 R/B

Hit Count: updated at: Fri, 19 Apr 2024 12:49:33 GMT